• In Uzbekistan
  • List of Countries
  • For 7 days
  • Water Temperature
  • Satellite Maps
  • Weather Map
  • Weather Widgets
  • user-avatar
    Login

    Hourly Weather Sarajevo

    Today, 18 October, Wednesday

    Time Temperature Precipitation Wind Pressure Humidity
    00:00 +13°C° 0 mm 1 mps 693 mmHg 52%
    01:00 +13°C° 0 mm 1 mps 693 mmHg 51%
    02:00 +13°C° 0 mm 1 mps 692 mmHg 50%
    03:00 +13°C° 0 mm 1 mps 692 mmHg 49%
    04:00 +13°C° 0 mm 1 mps 692 mmHg 49%
    05:00 +13°C° 0 mm 1 mps 692 mmHg 50%
    06:00 +13°C° 0 mm 1 mps 691 mmHg 50%
    07:00 +14°C° 0 mm 1 mps 692 mmHg 52%
    08:00 +16°C° 0 mm 1 mps 692 mmHg 47%
    09:00 +20°C° 0 mm 1 mps 692 mmHg 42%
    10:00 +22°C° 0 mm 1 mps 693 mmHg 37%
    11:00 +23°C° 0 mm 1 mps 692 mmHg 37%
    12:00 +23°C° 0 mm 2 mps 692 mmHg 37%
    13:00 +23°C° 0 mm 2 mps 692 mmHg 39%
    14:00 +21°C° 0 mm 2 mps 692 mmHg 44%
    15:00 +21°C° 0 mm 1 mps 692 mmHg 49%
    16:00 +20°C° 0 mm 1 mps 691 mmHg 54%
    17:00 +19°C° 0 mm 1 mps 691 mmHg 59%
    18:00 +16°C° 0 mm 1 mps 691 mmHg 63%
    19:00 +14°C° 0 mm 1 mps 690 mmHg 68%
    20:00 +13°C° 0 mm 1 mps 690 mmHg 69%
    21:00 +13°C° 0 mm 1 mps 690 mmHg 70%
    22:00 +13°C° 0 mm 1 mps 690 mmHg 71%
    23:00 +12°C° 0 mm 1 mps 690 mmHg 71%

    Tomorrow, 19 October, Thursday

    Time Temperature Precipitation Wind Pressure Humidity
    00:00 +12°C° 0 mm 1 mps 690 mmHg 71%
    01:00 +12°C° 0 mm 1 mps 690 mmHg 71%
    02:00 +12°C° 0 mm 1 mps 690 mmHg 71%
    03:00 +11°C° 0 mm 1 mps 690 mmHg 71%
    04:00 +11°C° 0 mm 1 mps 689 mmHg 71%
    05:00 +11°C° 0 mm 1 mps 690 mmHg 70%
    06:00 +12°C° 0 mm 1 mps 690 mmHg 69%
    07:00 +12°C° 0 mm 1 mps 690 mmHg 69%
    08:00 +14°C° 0 mm 1 mps 690 mmHg 61%
    09:00 +18°C° 0 mm 1 mps 691 mmHg 53%
    10:00 +20°C° 0 mm 1 mps 691 mmHg 46%
    11:00 +21°C° 0 mm 1 mps 691 mmHg 45%
    12:00 +20°C° 0 mm 2 mps 691 mmHg 43%
    13:00 +21°C° 0 mm 2 mps 691 mmHg 42%
    14:00 +20°C° 0 mm 2 mps 691 mmHg 47%
    15:00 +20°C° 0 mm 1 mps 691 mmHg 53%
    16:00 +19°C° 0 mm 1 mps 690 mmHg 58%
    17:00 +16°C° 0 mm 1 mps 690 mmHg 65%
    18:00 +14°C° 0 mm 1 mps 690 mmHg 71%
    19:00 +12°C° 0 mm 1 mps 690 mmHg 78%
    20:00 +12°C° 0 mm 1 mps 690 mmHg 79%
    21:00 +11°C° 0 mm 1 mps 690 mmHg 80%
    22:00 +11°C° 0 mm 1 mps 690 mmHg 81%
    23:00 +11°C° 0 mm 1 mps 690 mmHg 81%

    Day after tomorrow, 20 October, Friday

    Time Temperature Precipitation Wind Pressure Humidity
    00:00 +11°C° 0 mm 1 mps 690 mmHg 81%
    01:00 +10°C° 0 mm 1 mps 690 mmHg 81%
    02:00 +10°C° 0 mm 1 mps 690 mmHg 81%
    03:00 +10°C° 0 mm 1 mps 690 mmHg 80%
    04:00 +10°C° 0 mm 1 mps 689 mmHg 80%
    05:00 +10°C° 0 mm 1 mps 690 mmHg 78%
    06:00 +10°C° 0 mm 1 mps 690 mmHg 76%
    07:00 +10°C° 0 mm 1 mps 690 mmHg 74%
    08:00 +13°C° 0 mm 1 mps 691 mmHg 66%
    09:00 +16°C° 0 mm 1 mps 691 mmHg 57%
    10:00 +19°C° 0 mm 1 mps 692 mmHg 48%
    11:00 +20°C° 0 mm 1 mps 692 mmHg 46%
    12:00 +20°C° 0 mm 1 mps 692 mmHg 45%
    13:00 +21°C° 0 mm 1 mps 692 mmHg 43%
    14:00 +20°C° 0 mm 1 mps 691 mmHg 49%
    15:00 +19°C° 0 mm 1 mps 691 mmHg 54%
    16:00 +18°C° 0 mm 1 mps 691 mmHg 60%
    17:00 +15°C° 0 mm 1 mps 691 mmHg 67%
    18:00 +13°C° 0 mm 1 mps 691 mmHg 73%
    19:00 +11°C° 0 mm 0 mps 691 mmHg 80%
    20:00 +10°C° 0 mm 0 mps 691 mmHg 81%
    21:00 +11°C° 0 mm 1 mps 691 mmHg 82%
    22:00 +11°C° 0 mm 1 mps 691 mmHg 83%
    23:00 +10°C° 0 mm 1 mps 691 mmHg 83%

    21 October, Saturday

    Time Temperature Precipitation Wind Pressure Humidity
    00:00 +10°C° 0 mm 1 mps 691 mmHg 83%
    01:00 +10°C° 0 mm 1 mps 691 mmHg 83%
    02:00 +10°C° 0 mm 1 mps 691 mmHg 83%
    03:00 +9°C° 0 mm 1 mps 691 mmHg 83%
    04:00 +9°C° 0 mm 1 mps 691 mmHg 83%
    05:00 +10°C° 0 mm 1 mps 691 mmHg 82%
    06:00 +10°C° 0 mm 1 mps 691 mmHg 80%
    07:00 +10°C° 0 mm 1 mps 691 mmHg 78%
    08:00 +13°C° 0 mm 1 mps 692 mmHg 69%
    09:00 +15°C° 0 mm 0 mps 692 mmHg 59%
    10:00 +17°C° 0 mm 0 mps 693 mmHg 49%
    11:00 +18°C° 0 mm 0 mps 693 mmHg 46%
    12:00 +21°C° 0 mm 1 mps 693 mmHg 44%
    13:00 +21°C° 0 mm 1 mps 692 mmHg 41%
    14:00 +20°C° 0 mm 1 mps 692 mmHg 46%
    15:00 +19°C° 0 mm 1 mps 692 mmHg 51%
    16:00 +18°C° 0 mm 1 mps 691 mmHg 56%
    17:00 +15°C° 0 mm 1 mps 691 mmHg 63%
    18:00 +13°C° 0 mm 1 mps 691 mmHg 69%
    19:00 +11°C° 0 mm 0 mps 691 mmHg 76%
    20:00 +10°C° 0 mm 0 mps 690 mmHg 76%
    21:00 +11°C° 0 mm 1 mps 690 mmHg 76%
    22:00 +11°C° 0 mm 1 mps 690 mmHg 76%
    23:00 +10°C° 0 mm 1 mps 690 mmHg 76%

    22 October, Sunday

    Time Temperature Precipitation Wind Pressure Humidity
    00:00 +10°C° 0 mm 1 mps 690 mmHg 76%
    01:00 +10°C° 0 mm 1 mps 690 mmHg 76%
    02:00 +10°C° 0 mm 1 mps 690 mmHg 76%
    03:00 +10°C° 0 mm 1 mps 689 mmHg 77%
    04:00 +9°C° 0 mm 1 mps 689 mmHg 77%
    05:00 +10°C° 0 mm 1 mps 689 mmHg 76%
    06:00 +10°C° 0 mm 1 mps 689 mmHg 76%
    07:00 +10°C° 0 mm 1 mps 689 mmHg 75%
    08:00 +12°C° 0 mm 1 mps 689 mmHg 67%
    09:00 +15°C° 0 mm 1 mps 690 mmHg 59%
    10:00 +18°C° 0 mm 1 mps 690 mmHg 51%
    11:00 +18°C° 0 mm 2 mps 690 mmHg 52%
    12:00 +18°C° 0 mm 2 mps 689 mmHg 53%
    13:00 +19°C° 0 mm 2 mps 689 mmHg 54%
    14:00 +18°C° 0 mm 2 mps 688 mmHg 59%
    15:00 +17°C° 0 mm 2 mps 688 mmHg 65%
    16:00 +16°C° 0 mm 2 mps 687 mmHg 70%
    17:00 +15°C° 0 mm 2 mps 687 mmHg 76%
    18:00 +13°C° 0 mm 2 mps 686 mmHg 82%
    19:00 +12°C° 0 mm 2 mps 686 mmHg 88%
    20:00 +12°C° 0.5 mm 2 mps 686 mmHg 89%
    21:00 +12°C° 0.5 mm 2 mps 685 mmHg 90%
    22:00 +12°C° 0.5 mm 2 mps 685 mmHg 91%
    23:00 +12°C° 1.2 mm 2 mps 685 mmHg 91%

    23 October, Monday

    Time Temperature Precipitation Wind Pressure Humidity
    00:00 +10°C° 1.2 mm 3 mps 684 mmHg 92%
    01:00 +10°C° 1.2 mm 3 mps 684 mmHg 92%
    02:00 +10°C° 1 mm 2 mps 684 mmHg 92%
    03:00 +10°C° 1 mm 2 mps 684 mmHg 92%
    04:00 +9°C° 1 mm 2 mps 684 mmHg 92%
    05:00 +9°C° 1.4 mm 2 mps 684 mmHg 92%
    06:00 +8°C° 1.4 mm 3 mps 684 mmHg 92%
    07:00 +8°C° 1.4 mm 3 mps 684 mmHg 92%
    08:00 +7°C° 1.7 mm 3 mps 684 mmHg 90%
    09:00 +7°C° 1.7 mm 3 mps 684 mmHg 89%
    10:00 +6°C° 1.7 mm 4 mps 684 mmHg 87%
    11:00 +6°C° 0.6 mm 4 mps 684 mmHg 85%
    12:00 +6°C° 0.6 mm 4 mps 684 mmHg 83%
    13:00 +6°C° 0.6 mm 5 mps 684 mmHg 81%
    14:00 +6°C° 0.1 mm 5 mps 685 mmHg 81%
    15:00 +5°C° 0.1 mm 5 mps 685 mmHg 81%
    16:00 +5°C° 0.1 mm 5 mps 685 mmHg 81%
    17:00 +5°C° 0.1 mm 5 mps 685 mmHg 82%
    18:00 +5°C° 0.1 mm 5 mps 686 mmHg 82%
    19:00 +3°C° 0.1 mm 5 mps 686 mmHg 82%
    20:00 +3°C° 0.2 mm 5 mps 686 mmHg 82%
    21:00 +3°C° 0.2 mm 5 mps 686 mmHg 82%
    22:00 +5°C° 0.2 mm 5 mps 686 mmHg 82%
    23:00 +5°C° 0.3 mm 5 mps 686 mmHg 82%
    Show more